PKNJT WARA-WAHI

Flight info

Callsign PKNJT
Flight time 0h 53m
Altitude 14000
Route SBR BA SOC
Aircraft F406/L-V/N

Departure

Time 2026-05-05 13:46
Airport Abdul Rachman Saleh Airport (WARA)

Arrival

Time 2026-05-05 14:39
Airport Yogyakarta International Airport (WAHI)
Time Latitude Longitude Altitude Speed Heading
2026-05-05 13:33 -7.93742 112.71221 1702 ft 0 kts 256°
2026-05-05 13:33 -7.93740 112.71230 1711 ft 4 kts 256°
2026-05-05 13:34 -7.93732 112.71256 1703 ft 4 kts 248°
2026-05-05 13:34 -7.93719 112.71278 1701 ft 4 kts 215°
2026-05-05 13:34 -7.93705 112.71283 1703 ft 1 kts 166°
2026-05-05 13:34 -7.93701 112.71282 1703 ft 0 kts 166°
2026-05-05 13:40 -7.93714 112.71285 1696 ft 3 kts 166°
2026-05-05 13:40 -7.93738 112.71291 1698 ft 4 kts 166°
2026-05-05 13:40 -7.93794 112.71306 1696 ft 14 kts 163°
2026-05-05 13:41 -7.93829 112.71364 1696 ft 12 kts 75°
2026-05-05 13:41 -7.93814 112.71445 1696 ft 9 kts 82°
2026-05-05 13:41 -7.93805 112.71488 1696 ft 6 kts 76°
2026-05-05 13:41 -7.93789 112.71544 1698 ft 11 kts 72°
2026-05-05 13:42 -7.93763 112.71623 1701 ft 7 kts 57°
2026-05-05 13:42 -7.93690 112.71617 1701 ft 20 kts 339°
2026-05-05 13:42 -7.93550 112.71582 1700 ft 22 kts 342°
2026-05-05 13:42 -7.93428 112.71552 1697 ft 20 kts 347°
2026-05-05 13:43 -7.93306 112.71521 1697 ft 20 kts 352°
2026-05-05 13:43 -7.93188 112.71493 1695 ft 0 kts 351°
2026-05-05 13:43 -7.93124 112.71477 1695 ft 19 kts 343°
2026-05-05 13:43 -7.92987 112.71434 1696 ft 20 kts 350°
2026-05-05 13:44 -7.92842 112.71414 1694 ft 22 kts 350°
2026-05-05 13:44 -7.92756 112.71394 1697 ft 0 kts 347°
2026-05-05 13:44 -7.92740 112.71391 1697 ft 4 kts 345°
2026-05-05 13:44 -7.92693 112.71378 1698 ft 14 kts 347°
2026-05-05 13:45 -7.92570 112.71338 1700 ft 19 kts 343°
2026-05-05 13:45 -7.92289 112.71254 1785 ft 199 kts 343°
2026-05-05 13:45 -7.91277 112.70971 2268 ft 134 kts 349°
2026-05-05 13:45 -7.90373 112.70819 2091 ft 136 kts 352°
2026-05-05 13:46 -7.89488 112.70722 2321 ft 122 kts 357°
2026-05-05 13:46 -7.88601 112.70724 2284 ft 132 kts
2026-05-05 13:46 -7.87713 112.70847 2416 ft 125 kts 11°
2026-05-05 13:46 -7.86869 112.71020 2433 ft 130 kts 14°
2026-05-05 13:47 -7.85992 112.71259 2472 ft 129 kts 19°
2026-05-05 13:47 -7.85159 112.71587 2533 ft 129 kts 26°
2026-05-05 13:47 -7.84444 112.71996 2205 ft 121 kts 32°
2026-05-05 13:47 -7.83679 112.72424 1760 ft 120 kts 26°
2026-05-05 13:48 -7.82943 112.72744 1348 ft 108 kts 17°
2026-05-05 13:48 -7.82367 112.72796 1136 ft 0 kts 97°
2026-05-05 13:48 -7.82339 112.72846 1678 ft 223 kts 60°
2026-05-05 13:48 -7.81787 112.73753 2448 ft 127 kts 56°
2026-05-05 13:49 -7.81259 112.74561 2739 ft 150 kts 57°
2026-05-05 13:49 -7.80668 112.75489 3530 ft 154 kts 57°
2026-05-05 13:49 -7.80086 112.76422 4222 ft 167 kts 57°
2026-05-05 13:49 -7.79397 112.77541 4151 ft 202 kts 58°
2026-05-05 13:50 -7.78599 112.78737 4211 ft 204 kts 51°
2026-05-05 13:50 -7.77578 112.79701 4544 ft 200 kts 37°
2026-05-05 13:50 -7.76385 112.80430 4847 ft 202 kts 27°
2026-05-05 13:50 -7.75087 112.80990 5132 ft 203 kts 21°
2026-05-05 13:51 -7.73828 112.81423 5327 ft 156 kts 20°
2026-05-05 13:51 -7.72794 112.81779 3939 ft 186 kts 21°
2026-05-05 13:51 -7.71703 112.82156 3284 ft 146 kts 18°
2026-05-05 13:51 -7.70794 112.82354 2711 ft 126 kts
2026-05-05 13:52 -7.69923 112.82415 1681 ft 132 kts
2026-05-05 13:52 -7.68967 112.82421 169 ft 100 kts
2026-05-05 13:52 -7.68493 112.82426 110 ft 1 kts 205°
2026-05-05 13:52 -7.68049 112.82722 537 ft 183 kts 32°
2026-05-05 13:53 -7.67102 112.83276 341 ft 151 kts 32°
2026-05-05 13:53 -7.66219 112.83581 360 ft 133 kts
2026-05-05 13:53 -7.65289 112.83626 193 ft 133 kts
2026-05-05 13:53 -7.64409 112.83686 272 ft 124 kts 10°
2026-05-05 13:54 -7.63535 112.83774 349 ft 112 kts
2026-05-05 13:54 -7.62994 112.83800 86 ft 4 kts 299°
2026-05-05 13:54 -7.62783 112.83324 887 ft 148 kts 309°
2026-05-05 13:54 -7.62158 112.82666 1292 ft 129 kts 323°
2026-05-05 13:55 -7.61473 112.82061 1328 ft 129 kts 326°
2026-05-05 13:55 -7.60734 112.81470 1629 ft 151 kts 324°
2026-05-05 13:55 -7.59835 112.80764 2035 ft 180 kts 326°
2026-05-05 13:55 -7.58768 112.79998 2293 ft 190 kts 327°
2026-05-05 13:56 -7.57710 112.79259 2918 ft 177 kts 325°
2026-05-05 13:56 -7.56737 112.78506 3504 ft 179 kts 323°
2026-05-05 13:56 -7.55735 112.77693 3827 ft 189 kts 322°
2026-05-05 13:56 -7.54729 112.76837 4226 ft 188 kts 321°
2026-05-05 13:57 -7.53715 112.75990 4649 ft 190 kts 327°
2026-05-05 13:57 -7.52481 112.75482 4884 ft 195 kts 352°
2026-05-05 13:57 -7.51151 112.75286 5307 ft 189 kts 354°
2026-05-05 13:57 -7.49868 112.75092 5890 ft 185 kts 353°
2026-05-05 13:58 -7.48582 112.74882 6309 ft 190 kts 354°
2026-05-05 13:58 -7.47245 112.74811 6649 ft 194 kts
2026-05-05 13:58 -7.45940 112.75087 7039 ft 191 kts 23°
2026-05-05 13:58 -7.44767 112.75685 7432 ft 190 kts 28°
2026-05-05 13:59 -7.42279 112.76554 8401 ft 189 kts 18°
2026-05-05 13:59 -7.40993 112.76882 8896 ft 191 kts 14°
2026-05-05 14:00 -7.38326 112.77098 9886 ft 195 kts
2026-05-05 14:00 -7.37428 112.77122 10188 ft 195 kts
2026-05-05 14:00 -7.35622 112.77377 10807 ft 197 kts 14°
2026-05-05 14:00 -7.34253 112.77510 11278 ft 203 kts 351°
2026-05-05 14:01 -7.32894 112.77074 11758 ft 209 kts 333°
2026-05-05 14:01 -7.31662 112.76285 12241 ft 211 kts 328°
2026-05-05 14:01 -7.30457 112.75447 12731 ft 209 kts 326°
2026-05-05 14:01 -7.29291 112.74617 13229 ft 206 kts 326°
2026-05-05 14:02 -7.28127 112.73778 13732 ft 205 kts 326°
2026-05-05 14:02 -7.26967 112.72940 14175 ft 205 kts 326°
2026-05-05 14:02 -7.25810 112.72104 14630 ft 204 kts 326°
2026-05-05 14:02 -7.24654 112.71272 15091 ft 204 kts 325°
2026-05-05 14:03 -7.23499 112.70446 15557 ft 204 kts 326°
2026-05-05 14:03 -7.22343 112.69623 16001 ft 206 kts 325°
2026-05-05 14:03 -7.21102 112.68750 15942 ft 225 kts 325°
2026-05-05 14:03 -7.20052 112.67552 15910 ft 235 kts 295°
2026-05-05 14:04 -7.19689 112.65941 15898 ft 239 kts 275°
2026-05-05 14:04 -7.19577 112.64272 15888 ft 239 kts 271°
2026-05-05 14:04 -7.19527 112.62598 15883 ft 239 kts 270°
2026-05-05 14:04 -7.19502 112.60927 15881 ft 238 kts 270°
2026-05-05 14:05 -7.19484 112.59263 15880 ft 238 kts 270°
2026-05-05 14:05 -7.19468 112.57610 15878 ft 239 kts 269°
2026-05-05 14:05 -7.19451 112.55914 15877 ft 239 kts 270°
2026-05-05 14:05 -7.19438 112.54242 15877 ft 239 kts 269°
2026-05-05 14:06 -7.19420 112.52586 15878 ft 240 kts 270°
2026-05-05 14:06 -7.19405 112.50908 15876 ft 239 kts 270°
2026-05-05 14:06 -7.19387 112.49216 15876 ft 244 kts 269°
2026-05-05 14:06 -7.19371 112.47503 15873 ft 245 kts 270°
2026-05-05 14:07 -7.19355 112.45788 15870 ft 246 kts 269°
2026-05-05 14:07 -7.19338 112.44062 15867 ft 246 kts 269°
2026-05-05 14:07 -7.19324 112.42338 15867 ft 246 kts 270°
2026-05-05 14:07 -7.19314 112.40620 15867 ft 245 kts 270°
2026-05-05 14:08 -7.19304 112.38907 15868 ft 246 kts 270°
2026-05-05 14:08 -7.19293 112.37183 15869 ft 246 kts 268°
2026-05-05 14:08 -7.19718 112.35532 15870 ft 244 kts 246°
2026-05-05 14:08 -7.22242 112.30032 15858 ft 247 kts 244°
2026-05-05 14:09 -7.24372 112.23467 15870 ft 251 kts 267°
2026-05-05 14:09 -7.23491 112.16548 15866 ft 251 kts 283°
2026-05-05 14:09 -7.21933 112.09730 15856 ft 249 kts 283°
2026-05-05 14:09 -7.20372 112.02927 15851 ft 250 kts 283°
2026-05-05 14:10 -7.18805 111.96102 15857 ft 250 kts 283°
2026-05-05 14:10 -7.17243 111.89298 15855 ft 251 kts 283°
2026-05-05 14:10 -7.15669 111.82441 15861 ft 251 kts 283°
2026-05-05 14:10 -7.14101 111.75608 15852 ft 249 kts 283°
2026-05-05 14:11 -7.12536 111.68794 15859 ft 249 kts 283°
2026-05-05 14:11 -7.10993 111.62081 15860 ft 248 kts 283°
2026-05-05 14:11 -7.10201 111.55209 15862 ft 248 kts 259°
2026-05-05 14:11 -7.12590 111.48708 15858 ft 247 kts 240°
2026-05-05 14:12 -7.15947 111.42653 15858 ft 248 kts 239°
2026-05-05 14:12 -7.19285 111.36596 15855 ft 247 kts 239°
2026-05-05 14:12 -7.22628 111.30535 15855 ft 247 kts 240°
2026-05-05 14:12 -7.25964 111.24482 15856 ft 247 kts 240°
2026-05-05 14:13 -7.29298 111.18432 15856 ft 247 kts 240°
2026-05-05 14:13 -7.32649 111.12350 15852 ft 248 kts 240°
2026-05-05 14:13 -7.35996 111.06274 15851 ft 248 kts 240°
2026-05-05 14:13 -7.39340 111.00199 15852 ft 248 kts 239°
2026-05-05 14:14 -7.42688 110.94120 15848 ft 248 kts 240°
2026-05-05 14:14 -7.46045 110.88023 15857 ft 247 kts 240°
2026-05-05 14:14 -7.49379 110.81972 15859 ft 247 kts 240°
2026-05-05 14:14 -7.53137 110.76221 15862 ft 246 kts 226°
2026-05-05 14:15 -7.58523 110.72216 15871 ft 244 kts 204°
2026-05-05 14:15 -7.65019 110.70504 15872 ft 241 kts 182°
2026-05-05 14:15 -7.70854 110.67192 15872 ft 245 kts 215°
2026-05-05 14:15 -7.74132 110.62878 15868 ft 247 kts 259°
2026-05-05 14:16 -7.74604 110.59437 15877 ft 248 kts 263°
2026-05-05 14:16 -7.74961 110.55976 15875 ft 249 kts 264°
2026-05-05 14:16 -7.75301 110.52501 15876 ft 248 kts 264°
2026-05-05 14:16 -7.75641 110.49032 15875 ft 248 kts 264°
2026-05-05 14:17 -7.75984 110.45572 15880 ft 248 kts 264°
2026-05-05 14:17 -7.76327 110.42106 15880 ft 249 kts 264°
2026-05-05 14:17 -7.76559 110.39722 15879 ft 250 kts 264°
2026-05-05 14:17 -7.76731 110.37984 15879 ft 249 kts 264°
2026-05-05 14:18 -7.76904 110.36249 15878 ft 249 kts 264°
2026-05-05 14:18 -7.77077 110.34512 15877 ft 248 kts 264°
2026-05-05 14:18 -7.77252 110.32777 15877 ft 248 kts 264°
2026-05-05 14:18 -7.77426 110.31048 15877 ft 248 kts 263°
2026-05-05 14:19 -7.77599 110.29315 15876 ft 248 kts 264°
2026-05-05 14:19 -7.77772 110.27586 15869 ft 248 kts 263°
2026-05-05 14:19 -7.77945 110.25851 15875 ft 249 kts 263°
2026-05-05 14:19 -7.78115 110.24111 15872 ft 250 kts 264°
2026-05-05 14:20 -7.78285 110.22396 15871 ft 249 kts 264°
2026-05-05 14:20 -7.78458 110.20660 15870 ft 249 kts 264°
2026-05-05 14:20 -7.78633 110.18905 15871 ft 248 kts 264°
2026-05-05 14:20 -7.78807 110.17176 15870 ft 247 kts 264°
2026-05-05 14:21 -7.78979 110.15468 15869 ft 248 kts 264°
2026-05-05 14:21 -7.79152 110.13731 15870 ft 248 kts 264°
2026-05-05 14:21 -7.79327 110.11999 15863 ft 249 kts 263°
2026-05-05 14:21 -7.79501 110.10262 15866 ft 249 kts 264°
2026-05-05 14:22 -7.79677 110.08523 15866 ft 249 kts 264°
2026-05-05 14:22 -7.79842 110.06885 15862 ft 220 kts 264°
2026-05-05 14:22 -7.79991 110.05403 15789 ft 210 kts 263°
2026-05-05 14:22 -7.80130 110.03985 15863 ft 199 kts 264°
2026-05-05 14:23 -7.80263 110.02607 15904 ft 196 kts 264°
2026-05-05 14:23 -7.80351 110.01705 15909 ft 195 kts 264°
2026-05-05 14:23 -7.80484 110.00343 15933 ft 195 kts 264°
2026-05-05 14:23 -7.80618 109.98977 15937 ft 196 kts 263°
2026-05-05 14:24 -7.80748 109.97603 15939 ft 197 kts 263°
2026-05-05 14:24 -7.80877 109.96228 15940 ft 197 kts 264°
2026-05-05 14:24 -7.81202 109.94908 15938 ft 195 kts 237°
2026-05-05 14:24 -7.82223 109.94050 15945 ft 202 kts 197°
2026-05-05 14:25 -7.83666 109.93747 15943 ft 222 kts 185°
2026-05-05 14:25 -7.85243 109.93581 15939 ft 232 kts 182°
2026-05-05 14:25 -7.86825 109.93335 15936 ft 225 kts 190°
2026-05-05 14:25 -7.88329 109.92984 15937 ft 218 kts 192°
2026-05-05 14:26 -7.89790 109.92603 15937 ft 216 kts 193°
2026-05-05 14:26 -7.91236 109.92207 15939 ft 214 kts 193°
2026-05-05 14:26 -7.92671 109.91805 15939 ft 214 kts 193°
2026-05-05 14:26 -7.94082 109.91401 15936 ft 213 kts 194°
2026-05-05 14:27 -7.95514 109.90998 15934 ft 213 kts 194°
2026-05-05 14:27 -7.96942 109.90589 15935 ft 213 kts 194°
2026-05-05 14:27 -7.98375 109.90189 15934 ft 214 kts 194°
2026-05-05 14:27 -7.99808 109.89789 15938 ft 214 kts 193°
2026-05-05 14:28 -8.01237 109.89385 15937 ft 214 kts 194°
2026-05-05 14:28 -8.02667 109.88979 15936 ft 213 kts 194°
2026-05-05 14:28 -8.04012 109.88591 15916 ft 168 kts 193°
2026-05-05 14:28 -8.05004 109.88288 15426 ft 146 kts 195°
2026-05-05 14:29 -8.05993 109.87937 14519 ft 154 kts 198°
2026-05-05 14:29 -8.06944 109.87560 14045 ft 144 kts 195°
2026-05-05 14:29 -8.07946 109.87214 13588 ft 156 kts 195°
2026-05-05 14:29 -8.08990 109.86867 13085 ft 159 kts 194°
2026-05-05 14:30 -8.10067 109.86699 12588 ft 156 kts 164°
2026-05-05 14:30 -8.10919 109.87300 12104 ft 152 kts 117°
2026-05-05 14:30 -8.11022 109.88321 11625 ft 151 kts 70°
2026-05-05 14:30 -8.10305 109.89054 11151 ft 153 kts 24°
2026-05-05 14:31 -8.09287 109.89332 10696 ft 153 kts 15°
2026-05-05 14:31 -8.08228 109.89534 10214 ft 152 kts 12°
2026-05-05 14:31 -8.07198 109.89709 9760 ft 152 kts 11°
2026-05-05 14:31 -8.06148 109.89870 9242 ft 150 kts 11°
2026-05-05 14:32 -8.05136 109.90017 8763 ft 148 kts 11°
2026-05-05 14:32 -8.04120 109.90165 8277 ft 147 kts 12°
2026-05-05 14:32 -8.03109 109.90313 7793 ft 147 kts 10°
2026-05-05 14:32 -8.02100 109.90467 7318 ft 145 kts 11°
2026-05-05 14:33 -8.01101 109.90616 6851 ft 145 kts 11°
2026-05-05 14:33 -8.00110 109.90755 6391 ft 144 kts 11°
2026-05-05 14:33 -7.99123 109.90901 5888 ft 143 kts 10°
2026-05-05 14:33 -7.98189 109.91048 5397 ft 125 kts 11°
2026-05-05 14:34 -7.97349 109.91168 4914 ft 130 kts 11°
2026-05-05 14:34 -7.96387 109.91317 4445 ft 146 kts 12°
2026-05-05 14:34 -7.95370 109.91470 3964 ft 149 kts 12°
2026-05-05 14:34 -7.94341 109.91623 3483 ft 149 kts 12°
2026-05-05 14:35 -7.93175 109.91798 3015 ft 193 kts 11°
2026-05-05 14:35 -7.91809 109.92060 2525 ft 203 kts 20°
2026-05-05 14:35 -7.90470 109.92525 2039 ft 203 kts 24°
2026-05-05 14:35 -7.89148 109.93036 1550 ft 203 kts 26°
2026-05-05 14:36 -7.87826 109.93571 1076 ft 213 kts 27°
2026-05-05 14:36 -7.86635 109.94419 771 ft 208 kts 59°
2026-05-05 14:36 -7.86445 109.95506 987 ft 118 kts 121°
2026-05-05 14:36 -7.86971 109.96211 634 ft 151 kts 121°
2026-05-05 14:37 -7.87377 109.97262 422 ft 166 kts 105°
2026-05-05 14:37 -7.87826 109.98355 525 ft 164 kts 119°
2026-05-05 14:37 -7.88278 109.99333 587 ft 142 kts 109°
2026-05-05 14:37 -7.88527 110.00103 529 ft 118 kts 107°
2026-05-05 14:38 -7.88777 110.00799 326 ft 107 kts 107°
2026-05-05 14:38 -7.88991 110.01516 341 ft 118 kts 110°
2026-05-05 14:38 -7.89283 110.02226 789 ft 92 kts 110°
2026-05-05 14:38 -7.89453 110.02829 473 ft 99 kts 107°
2026-05-05 14:39 -7.89680 110.03400 228 ft 81 kts 114°
2026-05-05 14:39 -7.89910 110.03957 109 ft 91 kts 111°
2026-05-05 14:39 -7.90112 110.04545 17 ft 82 kts 108°
2026-05-05 14:39 -7.90165 110.04709 13 ft 3 kts 104°
2026-05-05 14:40 -7.90186 110.04765 13 ft 7 kts 109°
2026-05-05 14:40 -7.90206 110.04836 13 ft 15 kts 102°
2026-05-05 14:40 -7.90214 110.04934 13 ft 13 kts 86°
2026-05-05 14:40 -7.90196 110.05025 13 ft 14 kts 70°
2026-05-05 14:41 -7.90168 110.05090 13 ft 12 kts 56°
2026-05-05 14:41 -7.90101 110.05117 14 ft 11 kts
2026-05-05 14:41 -7.90033 110.05128 14 ft 9 kts 17°
2026-05-05 14:41 -7.89973 110.05150 14 ft 12 kts 20°
2026-05-05 14:42 -7.89939 110.05168 14 ft 9 kts 32°